Forside
METAR-TAF:

METAR-TAF

Lufthavne :

Owatonna Degner Regional Airport

Owatonna, Minnesota, USA

Breddekreds: 44-07N, længdekreds: 093-15W, højde: 350 m

Aktuelle vejr

Denne rapport blev lavet for 36 minutter siden, kl. 06:53 UTC
Vind 3 kt fra vestsydvest
Temperatur 0°C
Fugtighed 86%
Tryk 1013 hPa
Sigt: 16.1 km
skyfri

METAR: KOWA 290653Z AUTO 25003KT 10SM CLR 00/M02 A2990 RMK AO2

Tid: 01:29 (07:29 UTC)


TAF: fraværende

Vejrobservationer og prognoser fra mere end 4000 lufthavne (METAR og TAF).

De gule og røde prikker repræsenterer de meteorologiske stationer.

Flyt musen over at se navnet på stationen.

Så klik over at se vejr observationer og prognoser.

At skifte det kort: Klik på de grønne knapper med et sort kors for at zoome ind; på den grønne knap med en bindestreg for at zoome ud; eller på de grønne pile for tilstødende kort.


METAR-TAF: